Vorticity
nan nan nan nan nan nan nan nan nan nan nan nan nan nan nan nan nan nan nan nan nan nan nan nan nan nan nan nan nan nan nan nan nan nan nan nan nan nan nan nan nan nan nan nan nan nan nan nan nan
nan 2 5 8 8 5 5 8 8 5 2 7 6 5 7 5 5 9 9 10 7 6 7 7 6 5 5 4 5 6 7 7 6 6 5 5 6 5 5 4 6 8 7 6 5 5 4 3 nan
nan 6 9 5 4 6 6 9 6 3 10 9 5 4 6 7 9 6 9 13 6 6 6 6 6 7 6 5 5 6 5 5 6 7 7 6 5 5 3 5 5 6 6 4 6 5 4 6 nan
nan 5 7 9 4 5 4 5 1 1 12 7 6 7 6 8 9 10 13 9 4 5 6 6 7 7 6 5 5 5 6 6 7 7 6 5 5 4 4 6 8 5 5 4 7 5 6 7 nan
nan 9 6 4 6 8 6 2 3 6 5 8 6 5 7 7 8 14 11 6 4 4 7 7 6 7 7 7 6 5 6 7 8 8 7 6 5 5 7 2 4 3 5 5 6 6 5 5 nan
nan 7 9 9 4 4 8 8 7 8 6 11 11 6 5 9 11 10 9 7 6 7 7 9 6 5 6 6 5 6 6 6 7 7 7 6 6 6 4 5 4 5 5 8 7 6 3 5 nan
nan 6 6 8 6 4 9 10 7 7 9 8 10 10 7 8 11 11 8 6 7 7 6 7 8 4 4 5 6 8 7 6 8 8 8 8 6 7 6 6 5 8 8 6 6 5 4 6 nan
nan 6 7 4 5 6 12 9 7 7 4 6 8 6 6 11 14 10 8 5 5 5 6 6 7 7 6 5 6 7 7 7 6 6 6 7 8 11 6 4 7 7 8 11 9 5 5 5 nan
nan 8 7 8 7 8 8 5 5 6 5 7 7 5 9 12 10 5 4 4 5 6 7 7 7 7 7 7 7 8 6 5 4 4 4 3 6 8 7 6 7 6 3 10 10 6 7 3 nan
nan 5 8 9 6 6 4 4 4 3 4 5 5 6 10 11 7 4 3 3 4 5 5 6 7 7 5 7 8 7 6 5 5 7 5 3 8 8 8 6 5 7 9 10 7 5 4 1 nan
nan 7 6 9 7 5 3 7 4 3 4 3 2 6 9 7 7 6 4 6 6 3 6 8 6 8 6 6 5 6 8 9 11 9 4 5 6 7 6 7 7 8 10 8 8 5 4 4 nan
nan 12 7 4 7 5 5 4 4 5 3 4 6 4 7 8 7 8 6 7 7 5 4 6 7 6 6 5 7 6 6 7 8 10 9 3 4 6 6 7 8 7 10 9 5 6 9 9 nan
nan 8 6 2 2 5 6 3 7 9 5 5 7 6 8 9 8 8 7 7 9 7 7 7 6 5 6 4 6 7 6 7 9 9 8 6 5 6 7 6 9 10 9 11 7 8 8 10 nan
nan 8 4 8 9 7 10 7 10 7 5 6 5 6 9 9 11 9 11 8 6 8 7 8 7 7 5 5 6 5 7 7 8 9 10 8 6 7 8 8 8 9 12 10 9 9 7 9 nan
nan 10 13 14 11 9 12 7 11 12 14 8 4 8 10 10 14 11 7 10 8 7 10 10 10 7 7 5 6 6 7 8 7 10 11 9 6 6 6 7 9 7 13 13 8 7 7 8 nan
nan 9 11 16 12 8 4 5 13 20 17 9 10 10 11 9 8 10 11 10 9 10 10 8 10 9 7 5 6 6 7 8 8 8 10 9 8 6 4 6 8 9 8 14 9 6 8 9 nan
nan 7 8 8 14 10 2 3 5 3 7 10 8 6 4 6 7 10 11 10 10 11 11 12 10 8 7 6 7 9 7 7 8 8 10 10 9 7 5 6 9 8 6 8 7 9 8 8 nan
nan 4 4 9 9 9 7 5 -2 -1 4 4 3 6 7 8 7 11 11 10 10 14 17 13 11 11 6 5 7 9 7 8 9 9 10 10 9 11 7 8 9 6 7 9 10 7 8 8 nan
nan 6 3 7 3 8 7 4 5 6 3 5 6 7 7 9 9 10 10 8 12 16 18 14 9 7 5 6 5 7 8 7 8 10 9 9 9 10 7 8 9 9 9 8 8 9 6 6 nan
nan 5 7 1 7 6 8 6 10 15 11 10 10 10 10 8 8 6 13 15 12 13 14 12 10 8 4 4 5 9 11 8 9 10 10 9 9 8 8 8 9 10 13 12 9 4 0 9 nan
nan 11 7 5 7 7 12 16 16 12 14 15 13 11 12 9 6 7 10 15 17 13 13 12 11 9 7 5 4 5 6 9 9 9 10 12 11 9 8 7 8 10 11 13 10 6 5 7 nan
nan 14 11 8 5 9 7 13 14 12 14 13 11 12 10 9 7 5 8 11 16 20 14 11 12 11 11 7 6 6 3 4 6 9 9 11 12 9 8 10 9 6 6 10 7 6 8 9 nan
nan 17 14 11 7 8 6 6 12 13 8 10 12 8 5 5 6 6 8 9 18 25 15 11 12 11 12 8 6 6 6 7 9 10 8 5 10 11 11 9 7 6 8 10 9 6 5 6 nan
nan 7 9 12 12 12 12 6 7 8 9 8 7 4 5 5 6 8 8 10 16 21 15 11 9 10 11 9 7 8 7 6 6 8 9 7 7 13 15 9 7 7 8 7 8 9 8 6 nan
nan 5 6 7 7 14 15 5 5 11 14 9 5 5 7 6 6 5 7 9 12 20 17 10 9 10 9 8 7 8 9 8 8 7 8 7 6 9 12 12 10 9 10 7 6 9 10 8 nan
nan 2 6 10 8 10 11 9 9 13 9 5 6 5 7 8 6 5 6 8 8 21 24 11 9 10 10 7 7 8 8 6 10 8 8 9 8 9 10 10 12 10 9 9 7 6 12 11 nan
nan 9 5 9 10 9 8 9 10 7 3 6 5 4 5 6 7 9 6 7 8 20 25 15 11 10 10 8 9 8 8 8 8 8 7 9 10 10 11 11 10 10 9 9 9 9 10 8 nan
nan 11 7 7 8 8 9 10 13 9 5 3 2 5 6 5 7 10 8 6 10 18 26 16 11 10 9 10 8 10 9 8 9 10 9 8 9 10 10 11 12 11 10 11 7 6 8 8 nan
nan 5 7 9 8 8 9 11 14 12 5 7 7 3 4 5 8 10 9 9 12 26 28 13 10 10 10 10 9 10 10 9 9 9 9 9 9 9 10 10 11 11 11 10 10 8 6 6 nan
nan nan nan nan nan nan nan nan nan nan nan nan nan nan nan nan nan nan nan nan nan nan nan nan nan nan nan nan nan nan nan nan nan nan nan nan nan nan nan nan nan nan nan nan nan nan nan nan nan
CAPE
0 0 0 0 0 0 0 0 0 0 0 0 0 0 0 0 0 0 274 1168 1227 1404 1323 1408 1279 1490 1609 1637 1858 2087 2378 2403 2351 2281 2239 2221 2185 2128 2135 2171 2114 2063 2091 1745 1815 1967 1817 1565 1409
0 0 0 0 0 0 0 0 0 0 0 0 0 0 0 0 20 245 796 1170 1297 1391 1385 1587 1288 1542 1694 1686 1875 2184 2497 2525 2457 2410 2385 2356 2315 2233 2275 2159 2144 2137 2145 2052 1703 1750 1526 1593 1380
0 0 0 0 0 0 0 0 0 0 0 0 0 0 0 0 382 367 1085 1330 1321 1273 1311 1546 1431 1498 1734 1762 1839 2189 2335 2379 2393 2388 2500 2514 2408 2346 2183 1945 1696 2041 1951 2177 1860 1657 1654 1303 1124
0 0 0 0 0 0 0 0 0 0 0 0 0 0 0 0 414 421 1164 1445 1467 1339 1299 1233 1381 1497 1722 1892 2001 2069 2224 2141 2227 2323 2493 2529 2523 2428 1943 1845 1809 1694 1579 1929 2050 1712 1433 1079 839
0 0 0 0 0 0 0 0 0 0 0 0 0 0 0 527 650 799 1348 1493 1571 1565 1284 1245 1289 1481 1725 2012 2171 2160 2011 1999 2126 2251 2385 2463 2465 2373 1851 1475 1318 1437 1528 1605 1841 1583 1096 859 678
0 0 0 0 0 0 0 0 0 0 0 0 0 0 0 301 938 1248 1401 1553 1532 1564 1630 1770 1386 1458 1618 1786 1952 1970 1821 1717 1895 2101 2200 2347 2301 2010 1651 1402 1309 1127 1409 1539 1496 1238 898 676 502
0 0 0 0 0 0 0 0 0 0 0 0 0 0 0 104 893 1444 1381 1352 1302 1308 1452 1887 1874 1795 1576 1645 1614 1678 1656 1615 1683 1846 1803 1877 1752 1414 1523 1259 1250 1433 1210 1225 1293 1013 653 517 255
0 0 0 0 0 0 0 0 0 0 0 0 0 0 0 0 713 1299 1399 1471 1425 1272 1311 1446 2020 1976 2126 2136 1510 1482 1292 1264 1264 1362 1401 1144 1200 1184 1087 1245 1265 1300 1167 985 980 813 460 252 96
0 0 0 0 0 0 0 0 0 0 0 0 0 0 0 46 531 1233 1374 1044 1043 953 1347 1344 1560 2012 1927 2226 2049 1355 1190 920 804 992 795 614 1403 1290 1128 1089 666 818 867 1158 894 488 187 69 46
0 0 0 0 0 0 0 0 0 0 0 0 0 0 45 200 844 1329 1278 1349 1169 1371 1118 1281 1373 1576 1927 1833 2149 1698 1759 1506 1051 1162 1286 1328 1012 1062 1040 760 475 744 624 678 490 215 75 37 30
0 0 0 0 0 0 0 0 0 0 0 0 0 0 0 244 653 1281 1220 1310 1343 1393 1245 751 851 1307 1354 1539 1703 1693 1450 1170 1012 1215 748 558 260 347 523 601 536 727 529 914 201 156 116 29 38
0 0 0 0 0 0 0 0 0 0 0 0 0 0 0 0 377 918 1162 1043 1069 1121 1158 698 625 1094 1119 1199 1245 1189 1215 832 901 625 948 750 324 176 263 232 240 353 727 635 139 241 35 0 35
0 0 0 0 0 0 0 0 0 0 0 0 0 0 0 0 0 332 828 829 697 831 1079 791 771 1006 795 458 691 917 736 400 413 622 315 732 498 115 482 237 192 444 580 596 66 4 2 0 4
0 0 0 0 0 0 0 0 0 0 0 0 0 0 0 0 0 3 383 552 406 377 602 695 830 841 579 288 109 428 226 103 88 244 341 370 695 539 100 139 242 303 214 275 1 0 0 0 4
0 0 0 0 0 0 0 0 0 0 0 0 0 0 0 0 0 0 9 313 419 406 340 182 554 694 566 436 29 95 268 286 50 5 5 102 224 82 30 171 272 145 2 2 0 0 0 0 3
0 0 0 0 0 0 0 0 0 0 0 0 0 0 0 0 0 0 0 2 37 149 145 100 76 427 484 276 32 72 169 227 154 28 9 8 21 20 101 155 10 5 3 1 0 0 0 0 8
0 0 0 0 0 0 0 0 0 0 0 0 0 0 0 0 0 0 0 0 0 0 46 97 113 230 269 170 21 2 9 11 56 92 6 9 7 9 75 103 7 2 3 0 1 1 0 1 4
0 0 0 0 0 0 0 0 0 0 0 0 0 0 0 0 0 0 0 0 0 0 0 39 153 192 144 4 2 5 4 4 8 8 12 15 4 7 38 31 1 2 1 2 2 0 0 5 5
0 0 0 0 0 0 0 0 0 0 0 0 0 0 0 0 0 0 0 0 0 0 0 9 75 119 13 0 0 2 6 3 5 12 7 3 7 19 8 4 1 6 1 1 1 1 0 12 47
0 0 0 0 0 0 0 0 0 0 0 0 0 0 0 0 0 0 0 0 0 0 0 1 26 18 130 16 17 21 13 4 4 9 4 1 12 12 2 2 1 1 0 2 0 0 1 2 0
0 0 0 0 0 0 0 0 0 0 0 0 0 0 0 0 0 0 0 0 0 0 0 0 2 2 103 87 4 4 1 4 4 3 8 7 26 5 3 1 4 2 0 2 0 0 0 1 1
0 0 0 0 0 0 0 0 0 0 0 0 0 0 0 0 0 0 0 0 0 0 0 0 4 3 30 5 3 3 1 2 0 0 1 18 54 10 3 1 4 3 3 2 0 1 0 0 6
0 0 0 0 0 0 0 0 0 0 0 0 0 0 0 0 0 0 0 0 0 0 0 0 2 4 3 5 3 3 1 3 3 2 0 8 30 17 1 1 2 1 1 0 0 0 0 4 43
0 0 0 0 0 0 0 0 0 0 0 0 0 0 0 0 0 0 0 0 0 0 0 3 3 4 4 6 4 1 2 2 3 2 2 7 1 1 15 2 3 0 0 0 2 3 1 2 36
0 0 0 0 0 0 0 0 0 0 0 0 0 0 0 0 0 0 0 0 0 0 4 6 5 4 6 3 1 1 2 2 1 5 3 7 4 3 5 3 2 0 0 0 0 0 15 58 36
0 0 0 0 0 0 0 0 0 0 0 0 0 0 0 0 0 0 0 0 0 0 0 7 1 3 4 2 0 1 3 1 1 3 3 7 13 6 29 5 2 3 0 0 0 0 0 3 19
0 0 0 0 0 0 0 0 0 0 0 0 0 0 0 0 0 0 0 0 0 0 2 9 3 2 4 2 3 1 2 1 2 5 2 3 9 7 22 4 1 1 4 5 0 0 0 0 15
0 0 0 0 0 0 0 0 0 0 0 0 0 0 0 0 0 0 0 0 0 0 9 8 5 2 3 2 5 4 2 2 3 6 2 0 9 8 14 8 0 0 3 1 0 0 0 6 4
0 0 0 0 0 0 0 0 0 0 0 0 0 0 0 0 0 0 0 0 0 2 16 2 6 4 2 2 6 2 3 5 5 6 6 3 6 5 9 2 1 2 2 1 0 0 0 0 8
0 0 0 0 0 0 0 0 0 0 0 0 0 0 0 0 0 0 0 0 3 1 9 7 3 2 2 4 3 2 2 6 6 7 10 12 4 10 12 4 2 3 5 4 2 2 2 17 6